This is the latest recevied weather packets stored in our database for station/object NK0Z-13. If no packets are shown the sender has not sent any weather packets the latest 10 day(s).
| Time | Temp. | Humidity | Pressure | Rain* | Wind** | Luminosity | Snow |
|---|---|---|---|---|---|---|---|
| 1777926940 | 30° C | 29% | 1004.2 hPa | 0 mm | - | 645 W/m² | - |
| 1777926339 | 30° C | 29% | 1004.4 hPa | 0 mm | - | 881 W/m² | - |
| 1777925739 | 28.89° C | 30% | 1004.4 hPa | 0 mm | - | 400 W/m² | - |
| 1777925138 | 30° C | 29% | 1004.7 hPa | 0 mm | - | 379 W/m² | - |
| 1777924538 | 30° C | 30% | 1004.8 hPa | 0 mm | - | 775 W/m² | - |
| 1777923937 | 30° C | 30% | 1004.7 hPa | 0 mm | - | 812 W/m² | - |
| 1777923335 | 30° C | 27% | 1005 hPa | 0 mm | - | 815 W/m² | - |
| 1777922731 | 28.89° C | 27% | 1005 hPa | 0 mm | - | 669 W/m² | - |
| 1777922127 | 29.44° C | 29% | 1005.1 hPa | 0 mm | - | 784 W/m² | - |
| 1777921525 | 29.44° C | 29% | 1005.1 hPa | 0 mm | - | 866 W/m² | - |
| 1777920924 | 29.44° C | 28% | 1005.4 hPa | 0 mm | - | 891 W/m² | - |
| 1777920321 | 28.89° C | 30% | 1005.3 hPa | 0 mm | - | 915 W/m² | - |
| 1777919720 | 27.78° C | 33% | 1005.6 hPa | 0 mm | - | 763 W/m² | - |
| 1777919121 | 28.33° C | 32% | 1005.4 hPa | 0 mm | - | 785 W/m² | - |
| 1777918515 | 27.78° C | 32% | 1005.7 hPa | 0 mm | - | 783 W/m² | - |
| 1777917912 | 27.78° C | 34% | 1005.8 hPa | 0 mm | - | 431 W/m² | - |
| 1777917307 | 27.22° C | 36% | 1005.7 hPa | 0 mm | - | 554 W/m² | - |
| 1777916702 | 26.67° C | 38% | 1006 hPa | 0 mm | - | 541 W/m² | - |
| 1777916101 | 26.67° C | 33% | 1005.7 hPa | 0 mm | - | 461 W/m² | - |
| 1777915500 | 26.67° C | 35% | 1005.7 hPa | 0 mm | - | 703 W/m² | - |
| 1777914900 | 27.22° C | 33% | 1005.9 hPa | 0 mm | - | 573 W/m² | - |
| 1777914299 | 26.67° C | 35% | 1006 hPa | 0 mm | - | 695 W/m² | - |
| 1777913698 | 26.67° C | 35% | 1006.1 hPa | 0 mm | - | 757 W/m² | - |
| 1777913097 | 26.67° C | 35% | 1006 hPa | 0 mm | - | 736 W/m² | - |
| 1777912495 | 25.56° C | 36% | 1006 hPa | 0 mm | - | 771 W/m² | - |
* Rain latest hour (hover to see other rain measurements)
** Current wind speed in m/s (hover to see current wind gust speed)